Willmar, MN

5:52 AM CDT on September 25, 2016 (GMT -0500)
Willmar

Weather History for KBDH - November, 2013

Change the Weather History Date:

Saturday, November 9, 2013

  Actual Average (KLJF) Record (KLJF)
Temperature  
Mean Temperature 40 °F -  
Max Temperature 44 °F 42 °F 69 °F (1999)
Min Temperature 35 °F 26 °F 9 °F (1973)
Degree Days  
Heating Degree Days 26    
Moisture  
Dew Point 30 °F    
Average Humidity 68    
Maximum Humidity 87    
Minimum Humidity 49    
Precipitation  
Precipitation 0.00 in - - ()
Sea Level Pressure  
Sea Level Pressure 29.98 in    
Wind  
Wind Speed 18 mph (WNW)    
Max Wind Speed 29 mph    
Max Gust Speed 39 mph    
Visibility 10 miles    
Events      
Averages and records for this station are not official NWS values.
T = Trace of Precipitation, MM = Missing Value Source: NWS Daily Summary

Daily Weather History Graph

Daily Weather History Graph

Search for Another Location

Airport or City:

Trip Planner

Search our weather history database for the weather conditions in past years. The results will help you decide how hot, cold, wet, or windy it might be!

Date:

Astronomy

Nov. 09, 2013 Rise Set
Actual Time 7:10 AM CST 4:57 PM CST
Civil Twilight 6:39 AM CST 5:28 PM CST
Nautical Twilight 6:03 AM CST 6:04 PM CST
Astronomical Twilight 5:29 AM CST 6:38 PM CST
Moon 12:45 PM CST (11/9) 11:32 PM CST (11/9)
Length of Visible Light 10h 49m
Length of Day
9h 46m
Waxing Crescent, 44% of the Moon is Illuminated
Nov 9
Waxing Crescent
Nov 9
First Quarter
Nov 17
Full
Nov 25
Last Quarter
Dec 2
New

Hourly Weather History & Observations

Time (CST) Temp. Windchill Dew Point Humidity Pressure Visibility Wind Dir Wind Speed Gust Speed Precip Events Conditions
12:15 AM 39.2 °F 31.2 °F 35.6 °F 87% 29.67 in 10.0 mi West 13.8 mph 18.4 mph N/A   Overcast
12:35 AM 39.2 °F 32.0 °F 35.6 °F 87% 29.67 in 10.0 mi West 11.5 mph - N/A   Overcast
12:55 AM 39.2 °F 31.6 °F 35.6 °F 87% 29.68 in 10.0 mi West 12.7 mph - N/A   Mostly Cloudy
1:15 AM 39.2 °F 31.6 °F 35.6 °F 87% 29.69 in 10.0 mi West 12.7 mph - N/A   Overcast
1:35 AM 39.2 °F 31.2 °F 35.6 °F 87% 29.70 in 10.0 mi West 13.8 mph 18.4 mph N/A   Overcast
1:55 AM 41.0 °F 32.8 °F 35.6 °F 81% 29.71 in 10.0 mi West 16.1 mph - N/A   Overcast
2:15 AM 42.8 °F 35.4 °F 37.4 °F 81% 29.71 in 10.0 mi West 15.0 mph - N/A   Overcast
2:35 AM 42.8 °F 34.8 °F 37.4 °F 81% 29.72 in 10.0 mi West 17.3 mph - N/A   Overcast
2:55 AM 42.8 °F 35.1 °F 37.4 °F 81% 29.73 in 10.0 mi West 16.1 mph - N/A   Overcast
3:15 AM 42.8 °F 35.4 °F 37.4 °F 81% 29.73 in 10.0 mi West 15.0 mph - N/A   Overcast
3:35 AM 44.6 °F 36.9 °F 37.4 °F 76% 29.74 in 10.0 mi West 18.4 mph 24.2 mph N/A   Overcast
3:55 AM 44.6 °F 37.8 °F 37.4 °F 76% 29.75 in 10.0 mi West 15.0 mph - N/A   Overcast
4:15 AM 44.6 °F 36.1 °F 37.4 °F 76% 29.75 in 10.0 mi WNW 21.9 mph 25.3 mph N/A   Overcast
4:35 AM 44.6 °F 36.9 °F 37.4 °F 76% 29.76 in 10.0 mi WNW 18.4 mph - N/A   Overcast
4:55 AM 44.6 °F 36.6 °F 37.4 °F 76% 29.77 in 10.0 mi WNW 19.6 mph 26.5 mph N/A   Overcast
5:15 AM 44.6 °F 37.2 °F 37.4 °F 76% 29.77 in 10.0 mi WNW 17.3 mph 23.0 mph N/A   Overcast
5:35 AM 44.6 °F 37.8 °F 37.4 °F 76% 29.79 in 10.0 mi WNW 15.0 mph 19.6 mph N/A   Overcast
5:55 AM 44.6 °F 37.4 °F 37.4 °F 76% 29.80 in 10.0 mi WNW 16.1 mph 23.0 mph N/A   Overcast
6:15 AM 42.8 °F 34.3 °F 37.4 °F 81% 29.81 in 7.0 mi WNW 19.6 mph 25.3 mph N/A   Overcast
6:35 AM 42.8 °F 34.5 °F 35.6 °F 76% 29.83 in 10.0 mi WNW 18.4 mph 26.5 mph N/A   Overcast
6:55 AM 42.8 °F 33.5 °F 35.6 °F 76% 29.84 in 10.0 mi WNW 23.0 mph 28.8 mph N/A   Overcast
7:15 AM 41.0 °F 31.9 °F 35.6 °F 81% 29.85 in 10.0 mi WNW 19.6 mph 27.6 mph N/A   Overcast
7:35 AM 41.0 °F 31.6 °F 35.6 °F 81% 29.86 in 10.0 mi WNW 20.7 mph 28.8 mph N/A   Overcast
7:55 AM 41.0 °F 31.6 °F 33.8 °F 76% 29.88 in 10.0 mi WNW 20.7 mph 26.5 mph N/A   Overcast
8:15 AM 41.0 °F 32.2 °F 33.8 °F 76% 29.89 in 10.0 mi WNW 18.4 mph 28.8 mph N/A   Overcast
8:35 AM 41.0 °F 31.6 °F 33.8 °F 76% 29.90 in 10.0 mi NW 20.7 mph 28.8 mph N/A   Overcast
8:55 AM 39.2 °F 29.3 °F 33.8 °F 81% 29.91 in 10.0 mi WNW 20.7 mph 29.9 mph N/A   Overcast
9:15 AM 39.2 °F 29.6 °F 32.0 °F 75% 29.93 in 10.0 mi WNW 19.6 mph 35.7 mph N/A   Overcast
9:35 AM 39.2 °F 29.3 °F 30.2 °F 70% 29.94 in 10.0 mi WNW 20.7 mph 34.5 mph N/A   Mostly Cloudy
9:55 AM 39.2 °F 28.7 °F 28.4 °F 65% 29.95 in 10.0 mi WNW 23.0 mph 38.0 mph N/A   Mostly Cloudy
10:16 AM 39.2 °F 27.8 °F 28.4 °F 65% 29.96 in 10.0 mi WNW 27.6 mph 39.1 mph N/A   Overcast
10:35 AM 39.2 °F 28.7 °F 28.4 °F 65% 29.98 in 10.0 mi WNW 23.0 mph 33.4 mph N/A   Overcast
10:55 AM 39.2 °F 29.3 °F 28.4 °F 65% 29.98 in 10.0 mi WNW 20.7 mph 28.8 mph N/A   Overcast
11:16 AM 39.2 °F 29.3 °F 28.4 °F 65% 29.99 in 10.0 mi WNW 20.7 mph 29.9 mph N/A   Overcast
11:35 AM 39.2 °F 29.6 °F 28.4 °F 65% 29.99 in 10.0 mi WNW 19.6 mph 27.6 mph N/A   Overcast
11:55 AM 41.0 °F 31.4 °F 28.4 °F 61% 29.99 in 10.0 mi WNW 21.9 mph 34.5 mph N/A   Overcast
12:16 PM 41.0 °F 30.0 °F 26.6 °F 57% 29.99 in 10.0 mi WNW 28.8 mph 32.2 mph N/A   Overcast
12:35 PM 39.2 °F 27.8 °F 26.6 °F 61% 30.00 in 10.0 mi WNW 27.6 mph 36.8 mph N/A   Overcast
12:55 PM 39.2 °F 29.0 °F 26.6 °F 61% 30.01 in 10.0 mi WNW 21.9 mph 33.4 mph N/A   Overcast
1:16 PM 39.2 °F 29.0 °F 24.8 °F 56% 30.02 in 10.0 mi WNW 21.9 mph 31.1 mph N/A   Overcast
1:35 PM 39.2 °F 29.6 °F 24.8 °F 56% 30.02 in 10.0 mi WNW 19.6 mph 29.9 mph N/A   Overcast
1:55 PM 41.0 °F 32.5 °F 26.6 °F 57% 30.02 in 10.0 mi WNW 17.3 mph 24.2 mph N/A   Mostly Cloudy
2:15 PM 41.0 °F 31.9 °F 26.6 °F 57% 30.02 in 10.0 mi WNW 19.6 mph 25.3 mph N/A   Mostly Cloudy
2:35 PM 42.8 °F 33.5 °F 24.8 °F 49% 30.02 in 10.0 mi WNW 23.0 mph 34.5 mph N/A   Mostly Cloudy
2:55 PM 42.8 °F 32.9 °F 24.8 °F 49% 30.03 in 10.0 mi WNW 26.5 mph 36.8 mph N/A   Mostly Cloudy
3:15 PM 42.8 °F 33.1 °F 24.8 °F 49% 30.05 in 10.0 mi WNW 25.3 mph 34.5 mph N/A   Overcast
3:35 PM 42.8 °F 33.8 °F 26.6 °F 53% 30.06 in 10.0 mi WNW 21.9 mph 32.2 mph N/A   Overcast
3:55 PM 41.0 °F 30.2 °F 24.8 °F 53% 30.07 in 10.0 mi NW 27.6 mph 34.5 mph N/A   Overcast
4:15 PM 39.2 °F 27.6 °F 24.8 °F 56% 30.08 in 10.0 mi NW 28.8 mph 35.7 mph N/A   Overcast
4:35 PM 39.2 °F 27.6 °F 24.8 °F 56% 30.10 in 10.0 mi NW 28.8 mph 36.8 mph N/A   Mostly Cloudy
4:55 PM 39.2 °F 27.6 °F 24.8 °F 56% 30.11 in 10.0 mi NW 28.8 mph 35.7 mph N/A   Mostly Cloudy
5:15 PM 39.2 °F 29.0 °F 24.8 °F 56% 30.12 in 10.0 mi NW 21.9 mph 32.2 mph N/A   Overcast
5:35 PM 39.2 °F 28.7 °F 24.8 °F 56% 30.13 in 10.0 mi NW 23.0 mph 33.4 mph N/A   Overcast
5:55 PM 37.4 °F 26.6 °F 24.8 °F 60% 30.14 in 10.0 mi WNW 21.9 mph 26.5 mph N/A   Overcast
6:15 PM 37.4 °F 27.2 °F 24.8 °F 60% 30.15 in 10.0 mi NW 19.6 mph 28.8 mph N/A   Overcast
6:35 PM 37.4 °F 27.2 °F 24.8 °F 60% 30.16 in 10.0 mi WNW 19.6 mph 27.6 mph N/A   Overcast
6:55 PM 35.6 °F 25.5 °F 24.8 °F 65% 30.17 in 10.0 mi WNW 17.3 mph - N/A   Mostly Cloudy
7:15 PM 35.6 °F 25.5 °F 24.8 °F 65% 30.17 in 10.0 mi WNW 17.3 mph 24.2 mph N/A   Mostly Cloudy
7:35 PM 37.4 °F 27.2 °F 26.6 °F 65% 30.18 in 10.0 mi WNW 19.6 mph 24.2 mph N/A   Overcast
7:55 PM 37.4 °F 27.8 °F 24.8 °F 60% 30.19 in 10.0 mi WNW 17.3 mph 27.6 mph N/A   Overcast
8:15 PM 37.4 °F 27.8 °F 26.6 °F 65% 30.20 in 10.0 mi WNW 17.3 mph 26.5 mph N/A   Overcast
8:35 PM 37.4 °F 28.5 °F 26.6 °F 65% 30.20 in 10.0 mi WNW 15.0 mph 27.6 mph N/A   Overcast
8:55 PM 37.4 °F 28.2 °F 26.6 °F 65% 30.20 in 10.0 mi WNW 16.1 mph 25.3 mph N/A   Overcast
9:16 PM 37.4 °F 28.2 °F 26.6 °F 65% 30.22 in 10.0 mi WNW 16.1 mph - N/A   Overcast
9:35 PM 37.4 °F 27.8 °F 26.6 °F 65% 30.23 in 10.0 mi WNW 17.3 mph 25.3 mph N/A   Overcast
9:55 PM 37.4 °F 27.5 °F 26.6 °F 65% 30.23 in 10.0 mi WNW 18.4 mph 25.3 mph N/A   Overcast
10:16 PM 37.4 °F 28.5 °F 26.6 °F 65% 30.24 in 10.0 mi WNW 15.0 mph 24.2 mph N/A   Overcast
10:35 PM 37.4 °F 28.5 °F 26.6 °F 65% 30.25 in 10.0 mi WNW 15.0 mph - N/A   Overcast
10:55 PM 37.4 °F 27.2 °F 26.6 °F 65% 30.25 in 10.0 mi NW 19.6 mph 27.6 mph N/A   Overcast
11:15 PM 37.4 °F 27.5 °F 26.6 °F 65% 30.26 in 10.0 mi NW 18.4 mph 27.6 mph N/A   Overcast
11:35 PM 37.4 °F 27.8 °F 26.6 °F 65% 30.27 in 10.0 mi NW 17.3 mph - N/A   Overcast
11:55 PM 35.6 °F 24.8 °F 26.6 °F 70% 30.28 in 10.0 mi NW 19.6 mph 27.6 mph N/A   Overcast